CAPE
0 0 0 0 0 0 0 0 0 0 0 0 0 0 0 239 534 543 581 769 928 929 784 516 611 534 85 5 22 59 42 7 4 18 15 21 27 10 0 1 0 0 0
0 0 0 0 0 0 0 0 0 0 0 0 0 0 0 0 237 598 534 467 718 886 700 543 817 624 212 29 18 59 65 28 6 5 14 20 25 16 8 0 0 0 0
0 0 0 0 0 0 0 0 0 0 0 0 0 0 0 0 0 43 321 436 392 554 660 671 737 738 437 85 43 73 162 86 6 2 19 14 15 7 5 1 0 0 0
0 0 0 0 0 0 0 0 0 0 0 0 0 0 0 0 0 0 21 292 438 456 441 513 598 732 654 221 122 189 136 135 23 5 9 15 11 9 7 6 1 1 0
0 0 0 0 0 0 0 0 0 0 0 0 0 0 0 0 0 0 0 23 232 287 251 274 552 604 743 465 194 112 166 72 49 23 7 19 12 14 10 9 7 2 1
0 0 0 0 0 0 0 0 0 0 0 0 0 0 0 0 0 0 0 0 0 113 314 156 177 313 632 635 504 170 132 34 61 59 19 17 16 7 13 13 7 7 4
0 0 0 0 0 0 0 0 0 0 0 0 0 0 0 0 0 0 0 0 0 0 147 321 121 164 230 483 473 450 221 150 34 49 24 13 10 15 10 14 10 7 3
0 0 0 0 0 0 0 0 0 0 0 0 0 0 0 0 0 0 0 0 0 0 0 84 234 92 72 126 212 261 226 404 42 50 39 20 8 12 7 11 10 6 4
0 0 0 0 0 0 0 0 0 0 0 0 0 0 1 0 0 0 0 0 0 0 0 0 110 166 68 12 264 171 133 250 262 96 44 21 16 15 12 8 11 9 7
0 0 0 0 0 0 0 0 0 0 0 0 0 0 4 48 17 0 0 0 0 1 0 0 0 76 69 11 79 183 122 114 150 234 85 26 25 19 21 14 6 7 7
0 0 0 0 0 0 0 0 0 0 0 0 0 0 17 10 16 32 18 0 0 0 4 0 0 0 62 43 13 115 124 119 75 162 172 89 29 16 23 21 19 6 6
0 0 0 0 0 0 0 0 0 0 0 0 0 0 3 8 7 29 30 1 0 0 11 0 0 0 0 82 84 107 146 98 56 116 86 150 78 27 27 25 27 8 4
0 0 0 0 0 0 0 0 0 0 0 0 0 0 1 31 44 12 34 4 8 4 26 2 0 0 0 5 157 87 115 74 65 116 40 75 61 37 119 40 22 7 8
0 0 0 0 0 0 0 0 0 0 0 0 0 1 35 26 13 14 18 16 11 5 21 0 0 0 0 0 186 115 67 70 47 67 65 56 50 48 76 70 23 11 6
0 0 0 0 0 0 0 0 0 0 0 0 1 10 5 2 2 27 32 36 22 26 6 0 2 0 0 0 73 143 55 58 46 38 33 28 43 36 15 23 23 16 6
0 0 0 0 0 0 0 0 0 0 0 0 0 0 0 6 9 21 23 19 25 35 29 31 29 0 5 20 114 78 28 16 20 35 17 18 24 30 17 13 6 0 7
0 0 0 0 0 0 0 0 0 0 0 0 0 2 10 11 31 23 17 26 11 17 17 1 11 0 0 0 79 79 10 17 8 31 12 7 11 16 5 0 0 0 0
0 0 0 0 0 0 0 0 0 0 0 0 0 1 7 28 28 45 33 21 5 8 68 11 36 34 6 0 33 39 26 16 0 17 14 0 1 1 0 0 0 0 0
0 0 0 0 0 0 0 0 0 0 0 0 0 0 9 22 27 21 35 36 20 97 39 70 20 7 56 11 18 33 20 0 0 5 6 0 0 0 0 0 0 0 0
0 0 0 0 0 0 0 0 0 0 0 0 0 0 7 27 20 24 45 35 12 19 14 5 12 23 44 28 8 3 3 1 0 13 0 0 1 0 0 0 0 0 0
0 0 0 0 0 0 0 0 0 0 0 0 0 1 18 35 58 76 87 37 35 3 8 41 45 67 14 3 19 0 0 0 0 0 0 0 0 0 0 0 0 0 0
0 0 0 0 0 0 0 16 32 6 0 6 0 0 4 24 27 89 42 40 30 1 15 68 46 46 8 28 0 0 0 0 1 8 1 1 0 0 0 0 0 0 0
0 0 0 0 0 0 0 18 43 18 1 0 0 0 2 2 23 10 23 39 18 81 21 27 23 10 3 0 0 0 0 0 0 1 0 1 0 0 0 0 0 0 0
0 0 0 0 0 0 3 19 36 11 1 0 0 0 4 9 0 10 22 16 4 12 57 39 3 0 0 3 1 0 0 0 0 3 0 1 0 0 0 0 0 0 0
0 0 0 0 0 0 1 12 10 1 0 0 0 5 9 1 0 31 32 16 6 3 12 93 12 11 1 0 0 0 0 0 10 3 0 0 0 0 0 0 0 0 0
0 0 0 0 0 0 0 0 0 2 0 0 17 1 0 8 18 30 24 12 4 4 88 73 78 31 12 8 12 0 0 4 3 2 0 0 0 0 0 0 0 0 0
CIN
-0 -0 -0 -0 -0 -0 -0 -0 -0 -0 -0 -0 -0 -0 -0 -173 -82 -64 -52 -19 -3 -0 -2 -16 -0 -1 -83 -261 -0 -0 -0 -3 -0 -0 -1 -0 -3 -1 -0 -0 -0 -0 -0
-0 -0 -0 -0 -0 -0 -0 -0 -0 -0 -0 -0 -0 -0 -0 -0 -182 -70 -64 -69 -18 -5 -7 -14 -0 -0 -32 -174 -12 -0 -0 -0 -1 -0 -1 -2 -1 -0 -0 -0 -0 -0 -0
-0 -0 -0 -0 -0 -0 -0 -0 -0 -0 -0 -0 -0 -0 -0 -0 -0 -377 -130 -78 -67 -35 -5 -10 -8 -1 -0 -70 -11 -73 -55 -121 -0 -0 -0 -1 -0 -0 -0 -0 -0 -0 -0
-0 -0 -0 -0 -0 -0 -0 -0 -0 -0 -0 -0 -0 -0 -0 -0 -0 -0 -143 -122 -57 -41 -46 -22 -1 -3 -0 -9 -34 -1 -46 -94 -0 -0 -0 -0 -1 -0 -0 -0 -0 -0 -0
-0 -0 -0 -0 -0 -0 -0 -0 -0 -0 -0 -0 -0 -0 -0 -0 -0 -0 -0 -169 -149 -88 -116 -51 -20 -11 -0 -0 -7 -27 -10 -0 -0 -0 -0 -1 -0 -0 -0 -0 -0 -0 -0
-0 -0 -0 -0 -0 -0 -0 -0 -0 -0 -0 -0 -0 -0 -0 -0 -0 -0 -0 -0 -0 -259 -85 -132 -94 -52 -8 -2 -0 -13 -7 -83 -0 -0 -0 -0 -0 -0 -0 -0 -0 -0 -0
-0 -0 -0 -0 -0 -0 -0 -0 -0 -0 -0 -0 -0 -0 -0 -0 -0 -0 -0 -0 -0 -0 -200 -79 -160 -118 -56 -10 -6 -0 -0 -2 -0 -0 -0 -0 -0 -0 -0 -0 -0 -0 -0
-0 -0 -0 -0 -0 -0 -0 -0 -0 -0 -0 -0 -0 -0 -0 -0 -0 -0 -0 -0 -0 -0 -0 -109 -95 -174 -188 -110 -43 -12 -6 -0 -8 -0 -0 -0 -0 -0 -0 -0 -0 -0 -0
-0 -0 -0 -0 -0 -0 -0 -0 -0 -0 -0 -0 -0 -0 -2 -0 -0 -0 -0 -0 -0 -0 -0 -0 -47 -97 -184 -227 -65 -54 -43 -4 -0 -20 -0 -0 -0 -0 -0 -0 -0 -0 -0
-0 -0 -0 -0 -0 -0 -0 -0 -0 -0 -0 -0 -0 -0 -30 -23 -4 -0 -0 -0 -0 -0 -0 -0 -0 -68 -167 -72 -140 -73 -98 -25 -12 -0 -4 -0 -0 -0 -0 -0 -0 -0 -0
-0 -0 -0 -0 -0 -0 -0 -0 -0 -0 -0 -0 -0 -0 -52 -76 -48 -9 -0 -0 -0 -0 -7 -0 -0 -0 -4 -54 -72 -71 -97 -42 -50 -14 -14 -46 -0 -0 -0 -0 -0 -0 -0
-0 -0 -0 -0 -0 -0 -0 -0 -0 -0 -0 -0 -0 -0 -45 -25 -14 -7 -1 -2 -0 -0 -3 -0 -0 -0 -0 -5 -158 -145 -69 -60 -28 -59 -40 -20 -7 -0 -0 -0 -0 -0 -0
-0 -0 -0 -0 -0 -0 -0 -0 -0 -0 -0 -0 -0 -0 -14 -48 -22 -12 -0 -2 -1 -3 -3 -1 -0 -0 -0 -0 -96 -191 -124 -76 -34 -62 -20 -10 -2 -0 -43 -56 -0 -0 -0
-0 -0 -0 -0 -0 -0 -0 -0 -0 -0 -0 -0 -0 -16 -67 -58 -37 -6 -2 -0 -0 -2 -1 -0 -0 -0 -0 -0 -71 -164 -177 -123 -40 -24 -21 -12 -7 -23 -55 -85 -1 -0 -0
-0 -0 -0 -0 -0 -0 -0 -0 -0 -0 -0 -0 -11 -88 -88 -75 -34 -2 -0 -0 -0 -0 -0 -0 -5 -0 -0 -0 -29 -127 -172 -76 -39 -30 -27 -20 -13 -10 -1 -1 -1 -0 -0
-0 -0 -0 -0 -0 -0 -0 -0 -0 -0 -0 -0 -0 -0 -35 -59 -11 -1 -0 -0 -0 -1 -0 -2 -3 -0 -13 -0 -32 -126 -63 -104 -47 -37 -45 -45 -13 -15 -4 -5 -5 -0 -0
-0 -0 -0 -0 -0 -0 -0 -0 -0 -0 -0 -0 -0 -78 -54 -26 -1 -1 -0 -0 -0 -0 -0 -0 -2 -0 -0 -0 -7 -16 -70 -75 -36 -35 -62 -60 -25 -19 -15 -0 -0 -0 -0
-0 -0 -0 -0 -0 -0 -0 -0 -0 -0 -0 -0 -0 -64 -38 -5 -1 -1 -0 -0 -0 -1 -0 -16 -1 -8 -0 -0 -1 -25 -38 -46 -2 -24 -62 -4 -53 -35 -0 -0 -0 -0 -0
-0 -0 -0 -0 -0 -0 -0 -0 -0 -0 -0 -0 -0 -0 -41 -8 -1 -1 -0 -0 -0 -0 -2 -0 -1 -26 -1 -5 -34 -46 -43 -0 -0 -28 -58 -0 -0 -0 -0 -0 -0 -0 -0
-0 -0 -0 -0 -0 -0 -0 -0 -0 -0 -0 -0 -2 -30 -35 -14 -2 -0 -0 -0 -0 -1 -0 -0 -1 -2 -1 -5 -0 -26 -13 -89 -0 -17 -0 -0 -32 -0 -0 -0 -0 -0 -0
-0 -0 -0 -0 -0 -0 -0 -0 -0 -0 -0 -0 -0 -46 -29 -9 -0 -0 -0 -0 -0 -0 -15 -0 -0 -0 -0 -1 -0 -7 -0 -0 -0 -1 -1 -0 -0 -0 -0 -0 -0 -0 -0
-0 -0 -0 -0 -0 -0 -0 -0 -2 -13 -14 -47 -60 -0 -36 -9 -1 -0 -0 -0 -16 -0 -4 -0 -0 -0 -0 -0 -0 -0 -0 -0 -0 -5 -1 -0 -0 -0 -0 -0 -0 -0 -0
-0 -0 -0 -0 -0 -0 -0 -0 -0 -3 -37 -0 -0 -0 -37 -5 -0 -0 -0 -0 -0 -0 -11 -19 -17 -4 -1 -0 -0 -0 -0 -0 -0 -1 -0 -0 -0 -0 -0 -0 -0 -0 -0
-0 -0 -0 -0 -0 -0 -2 -0 -0 -4 -17 -0 -0 -37 -39 -6 -0 -0 -0 -0 -0 -0 -1 -3 -12 -0 -0 -23 -1 -0 -0 -0 -0 -1 -0 -1 -0 -0 -0 -0 -0 -0 -0
-0 -0 -0 -0 -0 -0 -1 -2 -3 -1 -2 -0 -0 -43 -5 -4 -0 -0 -0 -0 -0 -0 -0 -0 -29 -29 -44 -0 -15 -0 -1 -0 -0 -2 -0 -0 -0 -0 -0 -0 -0 -0 -0
-0 -0 -0 -0 -0 -0 -0 -0 -0 -7 -0 -1 -11 -8 -0 -3 -0 -0 -0 -0 -0 -0 -1 -1 -0 -2 -22 -0 -3 -0 -0 -1 -1 -1 -0 -0 -0 -0 -0 -0 -0 -0 -0
Wind_Speed
4 4 4 4 4 5 5 5 5 6 7 9 7 6 9 6 6 4 4 14 16 21 21 18 19 20 19 18 18 18 20 19 18 14 13 12 12 10 9 9 8 7 5
4 5 5 5 5 4 5 5 5 5 7 7 10 10 7 9 7 5 3 4 12 17 21 19 19 22 21 19 20 19 20 20 19 18 16 13 12 11 10 9 8 7 5
5 5 4 5 4 5 6 5 5 6 6 7 9 10 10 7 8 11 6 4 6 14 20 17 20 21 23 21 21 20 20 20 19 20 17 16 13 13 12 10 9 8 6
4 4 4 4 4 4 4 4 5 5 5 4 5 7 8 10 9 11 10 6 5 6 13 19 21 21 23 24 22 21 22 20 19 18 18 16 14 13 13 12 10 8 6
3 3 2 4 4 3 3 3 3 3 4 5 7 7 9 9 10 10 13 12 11 10 6 15 22 21 22 26 25 24 24 22 20 20 19 18 16 14 13 13 11 10 8
3 3 3 5 3 3 3 3 2 2 3 4 7 7 5 7 13 8 9 11 12 13 12 11 10 12 22 26 25 26 25 26 22 20 20 19 17 16 15 13 12 11 8
3 4 3 3 3 2 3 3 2 2 3 3 4 6 5 9 8 13 6 11 13 15 14 12 10 9 11 24 26 26 27 27 24 22 21 20 20 18 16 15 13 11 10
5 4 4 3 3 2 4 3 3 2 2 3 4 8 9 10 4 11 12 11 14 10 12 16 13 14 12 10 14 25 24 26 26 25 23 22 21 19 17 16 14 12 11
5 5 4 3 3 2 3 3 3 3 2 2 3 3 8 9 13 8 13 12 12 10 8 12 14 13 14 12 14 20 20 23 25 25 24 23 22 21 19 18 16 14 11
5 4 3 3 3 3 4 3 4 3 2 4 3 5 5 6 11 16 8 12 12 13 9 7 11 13 13 11 15 21 24 23 24 24 24 24 23 21 21 19 17 15 12
4 3 4 4 4 3 4 5 5 5 3 3 4 3 3 3 5 7 13 13 11 11 9 8 8 11 12 14 12 17 24 24 24 22 23 24 23 22 21 20 18 15 13
3 4 5 4 4 4 5 4 6 6 6 5 4 5 6 8 9 7 10 13 16 14 10 9 10 9 10 14 18 22 24 25 25 22 22 22 21 22 22 21 19 16 14
2 5 4 4 4 4 5 6 6 6 6 5 7 9 6 7 7 7 9 14 16 12 9 9 9 9 11 15 15 26 28 27 25 23 22 21 20 20 20 19 19 17 15
4 5 6 6 7 7 6 6 4 5 6 6 10 6 4 4 7 12 13 13 15 13 8 16 10 9 10 10 16 29 18 29 27 25 23 21 19 19 18 19 17 17 16
4 6 7 6 7 7 7 7 6 7 7 8 9 6 6 7 8 11 11 13 14 12 13 11 10 6 8 13 17 19 19 28 28 26 23 22 20 19 20 19 18 17 16
5 7 7 7 7 7 8 7 7 7 8 7 7 9 8 7 11 11 12 13 13 13 13 9 14 7 12 12 14 19 17 25 29 27 25 22 20 18 18 18 19 17 16
7 6 7 7 7 8 8 7 8 8 8 9 10 9 12 12 11 14 13 13 12 12 12 12 9 7 14 10 13 14 13 16 15 28 27 24 18 17 18 19 18 18 17
6 6 6 7 9 9 7 8 11 12 11 12 11 10 13 11 15 15 14 20 13 13 13 11 6 7 11 12 15 17 13 12 14 25 27 26 21 19 19 20 19 19 17
7 7 7 7 8 9 10 9 11 12 12 11 10 12 14 14 16 16 15 15 10 11 11 9 8 6 10 8 12 15 15 13 11 24 26 25 22 21 20 20 20 18 16
7 7 7 8 7 10 11 10 10 10 10 10 11 12 14 14 18 20 16 17 10 9 6 7 7 11 7 5 10 14 12 10 11 13 17 18 21 22 21 20 20 19 17
7 6 7 7 8 8 9 8 8 8 8 10 11 12 12 17 33 29 14 14 8 11 10 11 10 7 9 9 13 13 12 11 9 11 11 11 10 11 11 18 16 19 17
6 6 7 7 9 7 19 23 18 10 10 10 10 11 13 21 21 30 30 29 21 12 13 10 7 8 10 13 14 14 12 13 11 9 13 10 10 9 9 8 17 20 18
5 7 7 7 9 10 19 24 24 12 8 10 8 10 14 12 21 18 23 27 21 16 20 12 9 7 5 5 14 16 16 16 11 11 13 10 10 9 7 8 20 20 18
6 6 7 8 8 8 21 25 24 12 10 9 9 11 12 15 19 23 18 18 17 13 17 11 11 7 9 15 17 17 19 15 9 11 14 8 8 4 5 4 18 19 17
6 6 6 8 8 9 19 18 19 11 9 10 10 8 9 13 27 31 19 17 16 14 11 22 18 16 17 14 12 13 14 15 12 13 13 8 8 4 3 3 7 17 17
6 5 6 7 10 8 12 23 20 8 10 9 10 11 19 19 32 34 20 16 13 12 8 14 15 16 18 11 20 17 16 15 15 12 10 8 12 7 4 1 3 7 7
Wind_Direction
15 3 351 355 0 0 4 353 348 341 339 338 337 327 320 267 242 235 229 244 254 234 235 234 213 206 208 199 205 203 191 176 178 187 199 193 168 170 178 175 178 183 169
15 9 353 352 359 3 349 350 344 343 341 341 337 339 327 320 295 260 244 250 268 236 233 236 221 211 204 209 199 209 203 187 179 183 196 195 184 186 181 180 184 178 192
28 8 354 351 346 356 354 356 355 352 351 342 337 332 328 320 322 304 262 228 250 252 232 226 228 215 210 206 207 199 208 198 188 184 190 190 197 202 189 182 185 183 191
47 19 1 346 341 2 360 359 351 343 339 343 334 314 319 321 316 314 299 268 239 238 237 220 233 226 215 207 207 201 202 207 194 188 186 188 195 205 194 186 187 188 191
22 27 337 314 331 345 351 351 344 351 345 331 319 335 328 323 323 326 317 309 276 250 219 241 221 222 222 213 206 207 195 208 198 200 187 191 191 203 202 197 189 189 192
346 350 316 312 318 344 334 348 335 325 309 306 324 311 323 326 308 303 298 301 298 281 245 214 226 227 220 213 213 204 205 199 201 204 197 190 189 197 203 201 193 188 191
295 300 286 285 319 325 293 293 277 311 304 309 339 317 313 292 332 303 339 326 317 310 268 235 214 208 228 219 211 211 205 202 200 206 206 194 194 192 199 201 195 190 189
268 273 258 281 286 311 322 323 323 307 289 346 330 321 328 317 304 335 317 321 305 298 308 278 218 212 205 217 207 208 213 202 200 207 206 200 194 191 194 199 194 191 191
270 256 281 259 288 245 264 264 267 290 270 274 262 248 315 301 312 316 309 305 305 302 301 314 273 215 207 216 197 201 200 201 205 200 203 205 196 189 187 196 189 192 184
287 283 281 308 287 288 288 267 249 235 200 277 269 234 233 258 300 310 304 306 299 290 309 313 322 272 208 206 203 204 193 196 200 196 205 203 197 189 183 191 193 191 185
283 318 313 297 289 295 272 268 284 276 251 249 241 285 234 256 243 276 297 305 303 289 288 302 302 302 268 204 194 213 189 189 191 194 197 203 197 189 183 188 187 190 187
285 300 298 295 289 282 296 293 276 270 270 254 247 236 250 276 284 272 281 290 293 294 286 293 290 287 302 240 196 196 191 184 187 188 190 199 197 188 185 183 180 185 184
267 277 276 279 284 275 265 268 269 258 253 251 257 272 263 255 269 263 276 283 285 283 284 284 280 286 282 287 198 184 190 182 182 181 182 192 191 186 185 177 176 180 178
237 251 263 265 263 259 266 264 255 255 254 246 264 242 234 235 265 268 268 278 280 276 273 289 280 277 265 289 212 182 189 180 179 176 177 182 185 183 177 171 167 172 172
237 251 256 257 265 268 262 256 257 256 248 262 255 231 233 266 287 272 269 273 263 271 277 280 265 271 273 265 229 190 184 181 176 170 170 171 176 179 177 165 161 164 169
251 269 269 261 265 260 262 257 257 251 253 253 246 244 253 282 286 274 270 261 257 260 257 242 230 250 261 305 195 186 182 176 172 167 164 159 174 178 169 157 153 156 157
267 263 261 266 263 265 258 259 257 255 251 256 261 250 263 299 287 289 276 265 246 249 265 264 254 266 271 267 229 185 176 169 169 166 162 157 163 161 155 148 150 150 156
268 261 272 270 274 271 261 255 267 276 270 268 254 264 273 296 285 291 286 279 245 242 242 231 223 257 238 242 243 162 167 166 165 168 162 157 155 156 155 151 151 151 154
268 277 271 269 266 277 272 263 266 273 266 254 248 266 274 291 290 294 283 284 252 253 209 210 224 244 255 244 211 164 163 153 159 164 160 157 155 157 159 157 151 151 150
267 268 265 263 269 277 279 273 272 264 262 258 261 269 279 284 301 293 283 283 238 247 267 286 254 254 237 225 219 159 154 151 153 162 162 161 157 159 164 160 156 152 152
267 267 274 276 282 278 285 284 274 262 255 262 266 274 275 287 306 300 300 312 292 228 223 237 224 237 227 233 206 161 149 148 158 161 158 157 158 160 169 165 159 152 156
282 278 283 281 282 288 294 302 301 291 279 274 275 276 281 297 302 304 309 313 307 210 208 217 192 213 239 244 169 160 153 154 158 172 158 156 159 160 168 168 162 158 158
267 282 281 280 276 281 293 302 306 300 283 278 268 273 293 297 314 307 306 311 306 246 206 192 210 197 211 226 163 165 162 163 169 162 159 152 157 160 163 164 158 156 158
273 268 270 271 277 279 295 304 306 308 300 273 269 278 286 294 313 308 312 315 311 317 207 202 217 209 215 229 199 172 164 161 125 158 154 144 150 134 146 150 157 157 158
267 262 267 271 272 283 294 319 328 322 312 289 286 286 291 301 303 307 313 309 301 296 254 203 202 211 225 246 206 166 169 155 152 159 163 133 154 111 93 122 160 157 157
251 261 269 270 275 297 311 332 322 314 303 302 309 312 309 309 308 313 312 298 281 269 227 199 197 199 202 219 203 181 164 163 159 157 180 127 153 144 130 80 132 153 155